Location: Newark
(47.5833°N, 8.1500°E)
Time: 12:32:01
(UTC+00:00)

Transit 2A - Pass Details

Date: 29 October 2020
Orbit: 595 x 964 km, 66.7° (Epoch: 27 November)

Event Time Altitude Azimuth Distance (km) Brightness Sun altitude
Rises 22:44:16 0° 167° (SSE) 3,614 - -55.8°
Reaches altitude 10° 22:47:24 10° 152° (SSE) 2,690 - -55.9°
Maximum altitude 22:51:59 21° 106° (ESE) 2,001 - -56.0°
Drops below altitude 10° 22:56:32 10° 60° (ENE) 2,678 - -56.1°
Sets 22:59:38 0° 45° (NE) 3,594 - -56.2°
